Location: Austin
(30.3000°N, 97.7500°W)
Time: 12:15:11
(UTC-05:00)

CZ-4B R/B - Pass Details

Date: 08 April 2026
Orbit: 808 x 879 km, 98.9° (Epoch: 11 April)

Event Time Altitude Azimuth Distance (km) Brightness Sun altitude
Exits shadow 22:04:50 79° 50° (NE) 864 3.1 -27.5°
Drops below altitude 10° 22:10:13 10° 350° (N) 2,494 6.1 -28.5°
Sets 22:12:37 0° 349° (N) 3,444 6.9 -28.9°
